DW2537 Odenton MD US current weather conditions

sailwx.info

Wind from 042 at 1 knots gusting 7

Air temperature 7.2° C
Dewpoint 6.8° C

Last reported at 2020-Jan-25 13:04 UTC.
Time now 2020-Jan-25 13:28 UTC

Location: N 39°04' W 076°42'.
View on Google Maps.

See reports from other nearby stations

  
Tides and Currents Weather Stations Pressure Air Temp Water Temp Dewpoint Dewpoint Depression Visibility Wind Speed Wind Dir Waves Ship Positions
date/time (UTC)wind fromknots sea level pressurealtimeterstation pressurevisibilityair tempwater tempwave heightnotes
2020-Jan-25 13:09 030 3 gusting 7 7.2
2020-Jan-25 13:04 042 1 gusting 7 7.2
2020-Jan-25 12:59 051 3 gusting 7 7.2
2020-Jan-25 12:53 040 3 gusting 6 7.2
2020-Jan-25 12:48 027 2 gusting 6 7.8
2020-Jan-25 12:43 030 3 gusting 6 7.8
2020-Jan-25 12:38 024 2 gusting 6 7.8
2020-Jan-25 12:33 042 2 gusting 5 7.8
2020-Jan-25 12:28 042 1 gusting 5 7.8
2020-Jan-25 12:23 039 1 gusting 5 7.8
2020-Jan-25 12:18 034 0 gusting 5 7.8
2020-Jan-25 12:13 026 0 gusting 3 7.8
2020-Jan-25 12:08 029 0 gusting 6 7.8
2020-Jan-25 12:03 005 0 gusting 6 7.8
2020-Jan-25 11:58 041 1 gusting 6 7.8
2020-Jan-25 11:53 039 3 gusting 6 7.8
2020-Jan-25 11:48 034 2 gusting 6 7.8
2020-Jan-25 11:43 035 3 gusting 5 7.8
2020-Jan-25 11:38 030 1 gusting 4 7.8
2020-Jan-25 11:33 034 1 gusting 4 7.8
2020-Jan-25 11:28 039 0 gusting 4 7.8
2020-Jan-25 11:22 294 0 gusting 4 7.8
2020-Jan-25 11:17 294 0 gusting 4 7.8
2020-Jan-25 11:12 293 2 gusting 4 7.8
2020-Jan-25 11:07 291 0 gusting 4 7.8
2020-Jan-25 11:02 291 1 gusting 4 7.8
2020-Jan-25 10:57 278 2 gusting 4 7.8
2020-Jan-25 10:52 223 1 gusting 4 7.8
2020-Jan-25 10:47 284 7.8
2020-Jan-25 10:42 268 1 gusting 6 7.8
2020-Jan-25 10:37 169 2 gusting 6 7.8
2020-Jan-25 10:31 061 1 gusting 6 7.8
2020-Jan-25 10:26 054 2 gusting 6 7.8
2020-Jan-25 10:21 062 1 gusting 5 7.8
2020-Jan-25 10:16 069 1 gusting 6 7.8
2020-Jan-25 10:11 047 2 gusting 7 7.8
2020-Jan-25 10:06 051 2 gusting 7 7.8
2020-Jan-25 10:01 075 2 gusting 8 7.8
2020-Jan-25 09:56 063 2 gusting 8 7.8
2020-Jan-25 09:51 061 3 gusting 8 7.8
2020-Jan-25 09:46 071 4 gusting 8 7.8
2020-Jan-25 09:41 042 2 gusting 7 7.8
2020-Jan-25 09:36 059 4 gusting 7 7.8
2020-Jan-25 09:31 049 1 gusting 7 7.8
2020-Jan-25 09:26 066 1 gusting 7 7.8
2020-Jan-25 09:21 073 2 gusting 6 7.8
2020-Jan-25 09:16 049 1 gusting 6 7.8
2020-Jan-25 09:10 064 1 gusting 7 7.8
2020-Jan-25 09:05 055 1 gusting 7 7.8
2020-Jan-25 09:00 055 1 gusting 6 7.8
2020-Jan-25 08:55 073 1 gusting 6 7.8
2020-Jan-25 08:50 081 1 gusting 6 7.8
2020-Jan-25 08:45 049 2 gusting 6 7.8
2020-Jan-25 08:40 066 1 gusting 6 7.8
2020-Jan-25 08:35 054 7.8
2020-Jan-25 08:30 069 1 gusting 6 7.8
2020-Jan-25 08:25 063 1 gusting 6 8.3
2020-Jan-25 08:20 128 8.3
2020-Jan-25 08:15 074 8.3
2020-Jan-25 08:10 079 0 gusting 3 8.3
2020-Jan-25 08:05 071 1 gusting 10 7.8
2020-Jan-25 08:00 031 1 gusting 10 7.8
2020-Jan-25 07:55 072 1 gusting 10 7.8
2020-Jan-25 07:49 132 3 gusting 10 7.8
2020-Jan-25 07:44 048 2 gusting 5 7.8
2020-Jan-25 07:39 061 7.8
2020-Jan-25 07:34 071 7.8
2020-Jan-25 07:28 087 7.8
2020-Jan-25 07:23 085 0 gusting 6 7.8
2020-Jan-25 07:18 069 1 gusting 6 7.8
2020-Jan-25 07:13 066 3 gusting 6 7.8
2020-Jan-25 07:08 075 1 gusting 6 7.8
2020-Jan-25 07:03 070 1 gusting 6 7.8
2020-Jan-25 06:58 064 2 gusting 6 7.8
2020-Jan-25 06:53 064 1 gusting 7 7.8
2020-Jan-25 06:47 060 3 gusting 7 7.8
2020-Jan-25 06:42 054 2 gusting 6 7.8
2020-Jan-25 06:37 056 3 gusting 6 7.8
2020-Jan-25 06:32 057 2 gusting 6 7.8
2020-Jan-25 06:27 032 1 gusting 8 7.8
2020-Jan-25 06:22 069 2 gusting 8 7.8
2020-Jan-25 06:17 059 2 gusting 8 7.8
2020-Jan-25 06:12 058 5 gusting 7 7.8
2020-Jan-25 06:07 040 2 gusting 6 7.8
2020-Jan-25 06:02 077 1 gusting 6 7.8
2020-Jan-25 05:57 063 2 gusting 6 7.8
2020-Jan-25 05:52 066 2 gusting 6 7.8
2020-Jan-25 05:46 060 2 gusting 6 7.8
2020-Jan-25 05:41 074 2 gusting 5 7.8
2020-Jan-25 05:36 062 2 gusting 6 7.8
2020-Jan-25 05:31 071 1 gusting 6 7.8
2020-Jan-25 05:26 069 3 gusting 6 7.8
2020-Jan-25 05:21 072 1 gusting 6 7.8
2020-Jan-25 05:15 076 2 gusting 4 7.8
2020-Jan-25 05:10 059 1 gusting 4 7.8
2020-Jan-25 05:05 070 1 gusting 6 7.8
2020-Jan-25 05:00 059 1 gusting 6 7.8
2020-Jan-25 04:55 072 2 gusting 6 7.8
2020-Jan-25 04:50 057 1 gusting 6 7.8
2020-Jan-25 04:45 060 1 gusting 6 7.8
2020-Jan-25 04:40 055 2 gusting 6 7.8
2020-Jan-25 04:35 075 1 gusting 4 7.2
2020-Jan-25 04:30 072 1 gusting 4 7.2
2020-Jan-25 04:24 084 1 gusting 5 7.2
2020-Jan-25 04:19 058 1 gusting 5 7.2
2020-Jan-25 04:14 056 2 gusting 6 7.2
2020-Jan-25 04:09 059 3 gusting 6 7.2
2020-Jan-25 04:04 064 2 gusting 6 7.2
2020-Jan-25 03:59 074 2 gusting 6 7.2
2020-Jan-25 03:54 064 1 gusting 6 7.2
2020-Jan-25 03:49 065 2 gusting 6 7.2
2020-Jan-25 03:44 060 3 gusting 6 7.2
2020-Jan-25 03:39 064 2 gusting 6 7.2
2020-Jan-25 03:33 071 1 gusting 6 7.2
2020-Jan-25 03:28 065 1 gusting 6 7.2
2020-Jan-25 03:23 060 2 gusting 5 7.2
2020-Jan-25 03:18 056 2 gusting 6 7.2
2020-Jan-25 03:13 075 1 gusting 6 7.2
2020-Jan-25 03:08 059 1 gusting 6 7.2
2020-Jan-25 03:03 059 3 gusting 7 7.2
2020-Jan-25 02:58 056 1 gusting 7 7.2
2020-Jan-25 02:52 060 3 gusting 8 7.2
2020-Jan-25 02:47 042 1 gusting 8 7.2
2020-Jan-25 02:42 042 2 gusting 8 7.8
2020-Jan-25 02:37 062 3 gusting 9 7.8
2020-Jan-25 02:32 070 3 gusting 9 7.8
2020-Jan-25 02:27 062 4 gusting 9 7.8
2020-Jan-25 02:22 072 2 gusting 9 7.8
2020-Jan-25 02:17 057 4 gusting 9 7.8
2020-Jan-25 02:12 066 2 gusting 7 7.8
2020-Jan-25 02:06 055 1 gusting 8 7.8
2020-Jan-25 02:01 069 3 gusting 8 7.8
2020-Jan-25 01:56 072 1 gusting 8 7.8
2020-Jan-25 01:51 047 2 gusting 7 7.8
2020-Jan-25 01:46 059 3 gusting 7 7.8
2020-Jan-25 01:41 051 2 gusting 7 7.8
2020-Jan-25 01:36 070 1 gusting 8 7.8
2020-Jan-25 01:31 061 2 gusting 8 7.8
2020-Jan-25 01:26 067 2 gusting 8 7.8
2020-Jan-25 01:20 075 1 gusting 7 7.8
2020-Jan-25 01:15 061 3 gusting 7 7.8
2020-Jan-25 01:10 051 1 gusting 7 7.8
2020-Jan-25 01:05 066 2 gusting 6 7.8
2020-Jan-25 01:00 081 1 gusting 6 7.8
2020-Jan-25 00:55 062 2 gusting 8 7.8
2020-Jan-25 00:50 083 2 gusting 8 7.8
2020-Jan-25 00:45 074 2 gusting 8 8.3
2020-Jan-25 00:40 056 3 gusting 8 8.3
2020-Jan-25 00:35 067 3 gusting 8 8.3
2020-Jan-25 00:30 062 3 gusting 7 8.3
2020-Jan-25 00:25 064 3 gusting 8 8.3
2020-Jan-25 00:20 078 1 gusting 8 8.3
2020-Jan-25 00:15 058 3 gusting 8 8.3
2020-Jan-25 00:10 055 3 gusting 9 8.3
2020-Jan-25 00:05 049 1 gusting 9 8.3
2020-Jan-24 23:59 062 1 gusting 9 8.3
2020-Jan-24 23:54 018 1 gusting 9 8.9
2020-Jan-24 23:49 053 1 gusting 7 8.9
2020-Jan-24 23:44 056 2 gusting 7 8.9
2020-Jan-24 23:39 075 1 gusting 6 8.9
2020-Jan-24 23:34 076 2 gusting 6 8.9
2020-Jan-24 23:29 072 2 gusting 7 8.9
2020-Jan-24 23:24 057 3 gusting 7 8.9
2020-Jan-24 23:19 068 3 gusting 7 8.9
2020-Jan-24 23:14 066 3 gusting 7 9.4
2020-Jan-24 23:09 084 1 gusting 7 9.4
2020-Jan-24 23:03 058 3 gusting 7 9.4
2020-Jan-24 22:58 051 2 gusting 6 9.4
2020-Jan-24 22:53 060 1 gusting 6 9.4
2020-Jan-24 22:48 055 2 gusting 6 10.0
2020-Jan-24 22:43 046 1 gusting 6 10.0
2020-Jan-24 22:38 056 2 gusting 6 10.0
2020-Jan-24 22:32 075 1 gusting 6 10.0
2020-Jan-24 22:27 067 2 gusting 6 10.0
2020-Jan-24 22:22 053 2 gusting 6 10.0
2020-Jan-24 22:17 066 1 gusting 6 10.6
2020-Jan-24 22:12 065 1 gusting 6 10.6
2020-Jan-24 22:07 115 1 gusting 7 10.6
2020-Jan-24 22:02 055 1 gusting 7 10.6
2020-Jan-24 21:57 064 2 gusting 7 10.6
2020-Jan-24 21:52 057 3 gusting 7 10.6
2020-Jan-24 21:47 067 3 gusting 6 10.0
2020-Jan-24 21:42 084 1 gusting 5 10.0
2020-Jan-24 21:37 085 1 gusting 6 10.0
2020-Jan-24 21:31 063 0 gusting 6 10.0
2020-Jan-24 21:26 149 2 gusting 4 10.0
2020-Jan-24 21:21 070 1 gusting 4 10.0
2020-Jan-24 21:16 076 0 gusting 4 10.0
2020-Jan-24 21:11 068 1 gusting 4 10.0
2020-Jan-24 21:06 067 1 gusting 4 10.0
2020-Jan-24 21:01 067 1 gusting 4 10.0
2020-Jan-24 20:56 076 10.0
2020-Jan-24 20:51 076 0 gusting 4 10.0
2020-Jan-24 20:46 080 1 gusting 4 9.4
2020-Jan-24 20:41 074 1 gusting 4 9.4
2020-Jan-24 20:36 069 1 gusting 4 9.4
2020-Jan-24 20:31 071 1 gusting 4 9.4
2020-Jan-24 20:25 074 2 gusting 4 9.4
2020-Jan-24 20:20 076 1 gusting 3 9.4
2020-Jan-24 20:15 076 1 gusting 3 9.4
2020-Jan-24 20:10 078 9.4
2020-Jan-24 20:05 078 0 gusting 4 9.4
2020-Jan-24 20:00 078 0 gusting 4 9.4
2020-Jan-24 19:55 081 2 gusting 4 9.4
2020-Jan-24 19:50 084 1 gusting 2 8.9
2020-Jan-24 19:45 086 1 gusting 2 8.9
2020-Jan-24 19:40 090 1 gusting 5 8.9
2020-Jan-24 19:35 084 0 gusting 6 8.9
2020-Jan-24 19:30 094 1 gusting 6 8.9
2020-Jan-24 19:25 167 2 gusting 6 8.9
2020-Jan-24 19:20 072 4 gusting 6 8.9
2020-Jan-24 19:15 062 2 gusting 6 8.9
2020-Jan-24 19:10 074 1 gusting 6 8.9
2020-Jan-24 19:05 060 1 gusting 6 8.9
2020-Jan-24 19:00 054 2 gusting 6 8.9
2020-Jan-24 18:55 062 1 gusting 4 8.9
2020-Jan-24 18:50 074 0 gusting 6 8.9
2020-Jan-24 18:44 082 2 gusting 6 8.9
2020-Jan-24 18:39 069 1 gusting 6 8.9
2020-Jan-24 18:34 051 2 gusting 6 8.9
2020-Jan-24 18:29 061 1 gusting 5 8.3
2020-Jan-24 18:24 076 1 gusting 5 8.9
2020-Jan-24 18:19 073 2 gusting 4 8.9
2020-Jan-24 18:14 060 2 gusting 6 8.9
2020-Jan-24 18:09 059 1 gusting 6 8.3
2020-Jan-24 18:04 065 2 gusting 6 8.9
2020-Jan-24 17:59 058 2 gusting 6 8.9
2020-Jan-24 17:53 107 8.3
2020-Jan-24 17:48 177 2 gusting 6 8.3
2020-Jan-24 17:43 115 8.3
2020-Jan-24 17:38 162 1 gusting 6 8.3
2020-Jan-24 17:33 180 1 gusting 6 8.3
2020-Jan-24 17:28 193 1 gusting 6 8.3
2020-Jan-24 17:23 165 1 gusting 5 8.9
2020-Jan-24 17:18 164 2 gusting 6 8.3
2020-Jan-24 17:13 165 2 gusting 8 8.3
2020-Jan-24 17:08 160 1 gusting 8 8.3
2020-Jan-24 17:03 105 2 gusting 8 8.3
2020-Jan-24 16:57 157 2 gusting 8 8.3
2020-Jan-24 16:52 115 2 gusting 6 8.3
2020-Jan-24 16:47 147 2 gusting 6 7.8
2020-Jan-24 16:42 168 2 gusting 6 7.8
2020-Jan-24 16:37 050 1 gusting 6 7.8
2020-Jan-24 16:32 055 1 gusting 6 7.2
2020-Jan-24 16:27 073 1 gusting 6 7.2
2020-Jan-24 16:22 052 1 gusting 6 7.2
2020-Jan-24 16:17 047 2 gusting 6 7.2
2020-Jan-24 16:12 062 3 gusting 6 7.2
2020-Jan-24 16:07 053 2 gusting 7 7.2
2020-Jan-24 16:02 133 0 gusting 7 6.7
2020-Jan-24 15:57 048 1 gusting 7 6.7
2020-Jan-24 15:51 057 2 gusting 7 6.7
2020-Jan-24 15:46 054 1 gusting 6 6.1
2020-Jan-24 15:41 059 3 gusting 7 6.1
2020-Jan-24 15:36 068 2 gusting 7 6.1
2020-Jan-24 15:31 065 2 gusting 7 5.6
2020-Jan-24 15:26 068 4 gusting 7 5.6
2020-Jan-24 15:21 066 3 gusting 6 5.6
2020-Jan-24 15:16 056 1 gusting 5 5.0
2020-Jan-24 15:11 042 1 gusting 7 5.0
2020-Jan-24 15:06 065 1 gusting 7 5.0
2020-Jan-24 15:01 072 1 gusting 7 4.4
2020-Jan-24 14:56 062 4 gusting 7 4.4
2020-Jan-24 14:50 057 1 gusting 5 3.9
2020-Jan-24 14:45 071 1 gusting 5 3.3
2020-Jan-24 14:40 080 1 gusting 6 3.3
2020-Jan-24 14:35 064 1 gusting 6 3.3
2020-Jan-24 14:30 074 2.8
2020-Jan-24 14:25 066 2.8
2020-Jan-24 14:20 071 0 gusting 2 2.8
2020-Jan-24 14:15 071 0 gusting 4 2.2
2020-Jan-24 14:10 071 0 gusting 4 2.2
2020-Jan-24 14:05 072 1 gusting 4 2.2
2020-Jan-24 14:00 059 1 gusting 3 1.7
2020-Jan-24 13:54 061 1.7
2020-Jan-24 13:49 070 1 gusting 3 1.7
2020-Jan-24 13:44 074 2 gusting 3 1.1
2020-Jan-24 13:39 133 1 gusting 2 1.1
2020-Jan-24 13:34 136 0.6
2020-Jan-24 13:29 136 0.6
2020-Jan-24 13:24 136 0.6
2020-Jan-24 13:19 136 -0.0
2020-Jan-24 13:14 136 -0.0
2020-Jan-24 13:09 136 -0.0
2020-Jan-24 13:04 136 -0.0
2020-Jan-24 12:59 136 -0.0
2020-Jan-24 12:54 136 -0.0
2020-Jan-24 12:49 136 -0.0
2020-Jan-24 12:43 136 -0.0
2020-Jan-24 12:38 136 -0.0
2020-Jan-24 12:33 136 -0.0
2020-Jan-24 12:28 136 -0.0
2020-Jan-24 12:23 136 0.6
2020-Jan-24 12:18 136 0.6
2020-Jan-24 12:13 136 0.6
2020-Jan-24 12:08 136 0.6
2020-Jan-24 12:03 136 0.6
2020-Jan-24 11:58 136 0.6
2020-Jan-24 11:53 136 0.6
2020-Jan-24 11:48 136 0.6
2020-Jan-24 11:42 136 0.6
2020-Jan-24 11:37 136 -0.0
2020-Jan-24 11:32 136 -0.0
2020-Jan-24 11:27 136 -0.0
2020-Jan-24 11:22 136 -0.0
2020-Jan-24 11:17 136 -0.0
2020-Jan-24 11:12 136 -0.0
2020-Jan-24 11:07 136 -0.0
2020-Jan-24 11:02 136 -0.0
2020-Jan-24 10:57 136 -0.0
2020-Jan-24 10:52 136 -0.0
2020-Jan-24 10:47 136 -0.0
2020-Jan-24 10:42 136 -0.0
2020-Jan-24 10:37 136 -0.0
2020-Jan-24 10:32 136 -0.0
2020-Jan-24 10:27 136 -0.0
2020-Jan-24 10:22 136 -0.0
2020-Jan-24 10:17 136 -0.0
2020-Jan-24 10:12 136 -0.0
2020-Jan-24 10:07 136 -0.0
2020-Jan-24 10:02 136 -0.0
2020-Jan-24 09:57 136 -0.0
2020-Jan-24 09:52 136 0.6
2020-Jan-24 09:46 136 0.6
2020-Jan-24 09:41 136 0.6
2020-Jan-24 09:36 136 0.6
2020-Jan-24 09:31 136 0.6
2020-Jan-24 09:26 136 0.6
2020-Jan-24 09:21 136 0.6
2020-Jan-24 09:16 136 0.6
2020-Jan-24 09:11 136 0.6
2020-Jan-24 09:06 136 0.6
2020-Jan-24 09:01 136 0.6
2020-Jan-24 08:56 136 0.6
2020-Jan-24 08:51 136 0.6
2020-Jan-24 08:46 136 0.6
2020-Jan-24 08:41 136 0.6
2020-Jan-24 08:35 136 0.6
2020-Jan-24 08:30 136 0.6
2020-Jan-24 08:25 136 1 gusting 1 0.6
2020-Jan-24 08:20 136 -0.0
2020-Jan-24 08:15 136 -0.0
2020-Jan-24 08:10 136 -0.0
2020-Jan-24 08:05 136 -0.0
2020-Jan-24 08:00 136 -0.6
2020-Jan-24 07:55 136 -0.6
2020-Jan-24 07:50 136 -0.6
2020-Jan-24 07:44 136 -0.6
2020-Jan-24 07:39 136 -1.1
2020-Jan-24 07:34 136 -1.1
2020-Jan-24 07:29 136 -1.1
2020-Jan-24 07:24 136 -1.1
2020-Jan-24 07:19 136 -1.1
2020-Jan-24 07:14 136 -0.6
2020-Jan-24 07:09 136 -0.6
2020-Jan-24 07:04 136 -0.6
2020-Jan-24 06:59 136 -0.6
2020-Jan-24 06:54 136 -0.6
2020-Jan-24 06:49 136 -0.6
2020-Jan-24 06:44 136 -0.0
2020-Jan-24 06:39 136 -0.0
2020-Jan-24 06:34 136 -0.6
2020-Jan-24 06:29 136 -0.6
2020-Jan-24 06:24 136 0 gusting 1 -0.6
2020-Jan-24 06:19 136 -0.6
2020-Jan-24 06:14 136 -0.6
2020-Jan-24 06:09 136 -0.6
2020-Jan-24 06:04 136 -0.6
2020-Jan-24 05:59 136 -0.6
2020-Jan-24 05:53 136 -0.6
2020-Jan-24 05:48 136 -0.6
2020-Jan-24 05:43 136 -0.6
2020-Jan-24 05:38 136 -0.6
2020-Jan-24 05:33 136 -0.6
2020-Jan-24 05:28 136 -0.6
2020-Jan-24 05:23 136 -0.6
2020-Jan-24 05:18 136 -0.6
2020-Jan-24 05:13 136 -0.6
2020-Jan-24 05:08 136 -0.6
2020-Jan-24 05:03 136 -0.6
2020-Jan-24 04:58 136 -0.6
2020-Jan-24 04:53 136 -0.6
2020-Jan-24 04:48 136 -0.6
2020-Jan-24 04:43 136 -0.6
2020-Jan-24 04:38 136 -0.6
2020-Jan-24 04:32 136 -0.6
2020-Jan-24 04:27 136 -0.6
2020-Jan-24 04:22 136 -0.0
2020-Jan-24 04:17 136 -0.0
2020-Jan-24 04:12 136 -0.0
2020-Jan-24 04:07 136 -0.0
2020-Jan-24 04:02 136 0.6
2020-Jan-24 03:57 136 0.6
2020-Jan-24 03:51 136 0.6
2020-Jan-24 03:46 136 0.6
2020-Jan-24 03:41 136 0.6
2020-Jan-24 03:36 136 0.6
2020-Jan-24 03:31 136 0.6
2020-Jan-24 03:26 136 0.6
2020-Jan-24 03:21 136 1.1
2020-Jan-24 03:16 136 1.1
2020-Jan-24 03:11 136 1.1
2020-Jan-24 03:06 136 1.1
2020-Jan-24 03:01 136 1.1
2020-Jan-24 02:56 136 1.1
2020-Jan-24 02:51 136 1.1
2020-Jan-24 02:46 136 1.1
2020-Jan-24 02:41 136 1.1
2020-Jan-24 02:36 136 1.1
2020-Jan-24 02:31 136 1.1
2020-Jan-24 02:26 136 1.1
2020-Jan-24 02:21 136 1.1
2020-Jan-24 02:16 136 1.1
2020-Jan-24 02:10 136 1.1
2020-Jan-24 02:05 136 1.1
2020-Jan-24 02:00 136 1.1
2020-Jan-24 01:55 136 1.1
2020-Jan-24 01:50 136 1.1
2020-Jan-24 01:45 136 1.1
2020-Jan-24 01:40 136 1.1
2020-Jan-24 01:35 136 1.1
2020-Jan-24 01:30 136 1.1
2020-Jan-24 01:25 136 1.1
2020-Jan-24 01:20 136 1.1
2020-Jan-24 01:15 136 1.1
2020-Jan-24 01:10 136 1.1
2020-Jan-24 01:05 136 1.7
2020-Jan-24 01:00 136 1.7
2020-Jan-24 00:55 136 1.7
2020-Jan-24 00:50 136 1.7
2020-Jan-24 00:44 136 1.7
2020-Jan-24 00:39 136 1.7
2020-Jan-24 00:34 136 1.7
2020-Jan-24 00:29 136 1.7
2020-Jan-24 00:24 136 1.7
2020-Jan-24 00:19 136 1.7
2020-Jan-24 00:14 136 1.7
2020-Jan-24 00:09 136 1.7
2020-Jan-24 00:04 136 2.2
2020-Jan-23 23:59 136 2.2
2020-Jan-23 23:54 136 2.2
2020-Jan-23 23:49 136 2.2
2020-Jan-23 23:44 136 2.2
2020-Jan-23 23:39 136 2.2
2020-Jan-23 23:34 136 2.2
2020-Jan-23 23:29 136 2.2
2020-Jan-23 23:24 136 2.2
2020-Jan-23 23:19 136 2.2
2020-Jan-23 23:14 136 2.2
2020-Jan-23 23:08 136 2.8
2020-Jan-23 23:03 136 2.8
2020-Jan-23 22:58 136 2.8
2020-Jan-23 22:53 136 2.8
2020-Jan-23 22:48 136 3.3
2020-Jan-23 22:43 136 3.3
2020-Jan-23 22:38 136 3.3
2020-Jan-23 22:33 136 3.3
2020-Jan-23 22:28 136 3.9
2020-Jan-23 22:23 136 3.9
2020-Jan-23 22:17 136 0 gusting 0 3.9
2020-Jan-23 22:12 136 0 gusting 0 3.9
2020-Jan-23 22:07 136 4.4
2020-Jan-23 22:02 136 4.4
2020-Jan-23 21:57 136 4.4
2020-Jan-23 21:52 136 4.4
2020-Jan-23 21:47 136 4.4
2020-Jan-23 21:42 136 1 gusting 1 4.4
2020-Jan-23 21:37 139 0 gusting 2 5.0
2020-Jan-23 21:31 142 5.0
2020-Jan-23 21:26 142 5.0
2020-Jan-23 21:21 142 5.0
2020-Jan-23 21:16 142 5.0
2020-Jan-23 21:11 142 5.0
2020-Jan-23 21:06 143 5.0
2020-Jan-23 21:01 143 5.0
2020-Jan-23 20:56 143 5.0
2020-Jan-23 20:51 143 5.0
2020-Jan-23 20:46 143 5.0
2020-Jan-23 20:40 143 5.0
2020-Jan-23 20:35 143 5.0
2020-Jan-23 20:30 143 5.0
2020-Jan-23 20:24 143 5.0
2020-Jan-23 20:19 143 5.0
2020-Jan-23 20:14 143 5.0
2020-Jan-23 20:09 143 5.0
2020-Jan-23 20:04 143 5.0
2020-Jan-23 19:59 143 5.0
2020-Jan-23 19:54 143 5.0
2020-Jan-23 19:49 143 5.0
2020-Jan-23 19:44 143 5.0
2020-Jan-23 19:39 143 1 gusting 3 5.0
2020-Jan-23 19:33 143 1 gusting 3 5.0
2020-Jan-23 19:28 142 5.0
2020-Jan-23 19:23 142 5.0
2020-Jan-23 19:18 142 0 gusting 4 5.0
2020-Jan-23 19:13 151 0 gusting 4 5.0
2020-Jan-23 19:08 151 0 gusting 4 5.0
2020-Jan-23 19:03 158 1 gusting 4 5.0
2020-Jan-23 18:58 154 1 gusting 3 5.0
2020-Jan-23 18:52 153 5.0
2020-Jan-23 18:47 153 1 gusting 3 5.0
2020-Jan-23 18:42 148 1 gusting 4 5.0
2020-Jan-23 18:37 148 2 gusting 4 4.4
2020-Jan-23 18:32 148 4.4
2020-Jan-23 18:26 149 1 gusting 4 4.4
2020-Jan-23 18:21 136 4.4
2020-Jan-23 18:16 136 0 gusting 4 4.4
2020-Jan-23 18:11 138 4.4
2020-Jan-23 18:06 153 0 gusting 4 4.4
2020-Jan-23 18:01 097 1 gusting 4 4.4
2020-Jan-23 17:56 096 1 gusting 2 4.4
2020-Jan-23 17:51 095 4.4
2020-Jan-23 17:46 095 0 gusting 2 4.4
2020-Jan-23 17:40 095 4.4
2020-Jan-23 17:35 095 4.4
2020-Jan-23 17:30 095 4.4
2020-Jan-23 17:25 095 1 gusting 2 4.4
2020-Jan-23 17:20 095 3.9
2020-Jan-23 17:15 095 3.9
2020-Jan-23 17:10 095 3.9
2020-Jan-23 17:05 095 3.9
2020-Jan-23 17:00 095 3.9
2020-Jan-23 16:55 095 3.9
2020-Jan-23 16:50 095 3.9
2020-Jan-23 16:44 096 0 gusting 2 3.9
2020-Jan-23 16:39 096 0 gusting 1 3.9
2020-Jan-23 16:34 096 0 gusting 0 3.9
2020-Jan-23 16:29 096 0 gusting 0 3.3
2020-Jan-23 16:23 097 3.3
2020-Jan-23 16:18 097 3.3
2020-Jan-23 16:13 097 2.8
2020-Jan-23 16:08 097 2.8
2020-Jan-23 16:03 097 2.2
2020-Jan-23 15:58 097 2.2
2020-Jan-23 15:53 097 2.2
2020-Jan-23 15:47 097 2.2
2020-Jan-23 15:42 097 1.7
2020-Jan-23 15:37 097 1.7
2020-Jan-23 15:32 097 1.1
2020-Jan-23 15:27 097 1.1
2020-Jan-23 15:22 098 1.1
2020-Jan-23 15:17 098 1.1
2020-Jan-23 15:12 098 0.6
2020-Jan-23 15:07 098 0 gusting 0 0.6
2020-Jan-23 15:01 098 0 gusting 0 0.6
2020-Jan-23 14:56 098 0 gusting 0 -0.0
2020-Jan-23 14:51 098 -0.0
2020-Jan-23 14:46 098 -0.6
2020-Jan-23 14:41 098 -0.6
2020-Jan-23 14:36 098 1 gusting 1 -1.1
2020-Jan-23 14:31 098 -1.1
2020-Jan-23 14:25 098 -1.7
2020-Jan-23 14:20 098 -1.7
2020-Jan-23 14:15 098 -2.2
2020-Jan-23 14:10 098 -2.2
2020-Jan-23 14:05 098 -2.8
2020-Jan-23 14:00 098 -2.8
2020-Jan-23 13:55 098 -3.3
2020-Jan-23 13:49 098 -3.3
2020-Jan-23 13:44 098 -3.3
2020-Jan-23 13:39 098 -3.9
2020-Jan-23 13:34 098 -3.9
2020-Jan-23 13:29 098 -3.9
2020-Jan-23 13:24 098 -3.9
2020-Jan-23 13:19 098 -4.4
2020-Jan-23 13:14 098 -4.4
2020-Jan-23 13:09 098 -4.4
2020-Jan-23 13:04 098 -4.4